QPF
0.04 0.03 0.02 0.01 0.02 0.02 0.02 0.04 0.04 0.04 0.04 0.03 0.03 0.04 0.06 0.07 0.07 0.05 0.05 0.05 0.06 0.08 0.09 0.08 0.09 0.11 0.11 0.10 0.11 0.13 0.10 0.07 0.05 0.05 0.05 0.05 0.03 0.04 0.04 0.03 0.04 0.03 0.03
0.03 0.03 0.02 0.02 0.02 0.02 0.02 0.03 0.03 0.03 0.02 0.03 0.03 0.04 0.06 0.07 0.08 0.08 0.06 0.05 0.06 0.06 0.07 0.07 0.09 0.10 0.11 0.10 0.10 0.09 0.09 0.08 0.07 0.07 0.07 0.07 0.06 0.05 0.06 0.05 0.03 0.03 0.03
0.03 0.03 0.03 0.02 0.02 0.01 0.03 0.05 0.06 0.05 0.05 0.05 0.05 0.04 0.05 0.07 0.08 0.07 0.07 0.05 0.04 0.05 0.05 0.05 0.07 0.09 0.11 0.13 0.10 0.07 0.07 0.07 0.08 0.08 0.09 0.10 0.09 0.08 0.07 0.06 0.05 0.04 0.03
0.02 0.02 0.02 0.02 0.04 0.05 0.06 0.07 0.09 0.10 0.09 0.06 0.03 0.03 0.04 0.07 0.09 0.09 0.07 0.05 0.03 0.02 0.03 0.05 0.06 0.06 0.07 0.10 0.10 0.07 0.06 0.06 0.07 0.08 0.08 0.10 0.10 0.11 0.09 0.07 0.06 0.05 0.04
0.03 0.04 0.04 0.04 0.05 0.06 0.05 0.05 0.06 0.06 0.05 0.04 0.03 0.03 0.04 0.06 0.06 0.06 0.05 0.03 0.03 0.03 0.03 0.04 0.04 0.04 0.05 0.08 0.09 0.08 0.07 0.08 0.08 0.07 0.06 0.06 0.07 0.10 0.11 0.10 0.07 0.06 0.05
0.04 0.06 0.06 0.05 0.04 0.03 0.03 0.03 0.03 0.02 0.02 0.03 0.04 0.03 0.03 0.04 0.05 0.05 0.04 0.03 0.02 0.02 0.04 0.04 0.03 0.02 0.04 0.06 0.08 0.06 0.07 0.08 0.09 0.08 0.07 0.07 0.08 0.11 0.14 0.13 0.10 0.08 0.06
0.05 0.05 0.04 0.04 0.03 0.03 0.03 0.03 0.03 0.03 0.03 0.04 0.04 0.02 0.02 0.04 0.04 0.03 0.02 0.01 0.01 0.02 0.03 0.03 0.03 0.04 0.03 0.05 0.06 0.07 0.07 0.09 0.10 0.11 0.10 0.11 0.10 0.10 0.16 0.19 0.14 0.11 0.11
0.04 0.04 0.03 0.03 0.04 0.05 0.04 0.04 0.04 0.04 0.03 0.04 0.04 0.05 0.03 0.03 0.03 0.02 0.02 0.01 0.01 0.01 0.02 0.03 0.03 0.03 0.04 0.03 0.04 0.11 0.10 0.12 0.16 0.14 0.14 0.11 0.09 0.08 0.12 0.19 0.16 0.09 0.06
0.03 0.05 0.03 0.02 0.03 0.03 0.03 0.03 0.03 0.03 0.03 0.04 0.05 0.06 0.06 0.04 0.02 0.01 0.01 0.01 0.01 0.01 0.02 0.04 0.04 0.04 0.03 0.03 0.05 0.15 0.22 0.17 0.14 0.12 0.12 0.10 0.10 0.11 0.13 0.16 0.16 0.10 0.07
0.03 0.03 0.02 0.02 0.03 0.04 0.04 0.03 0.03 0.03 0.03 0.04 0.04 0.04 0.03 0.03 0.02 0.01 0.00 0.01 0.02 0.02 0.03 0.04 0.04 0.05 0.05 0.04 0.05 0.08 0.19 0.23 0.16 0.12 0.10 0.11 0.14 0.17 0.19 0.19 0.16 0.12 0.11
0.03 0.03 0.02 0.02 0.03 0.04 0.03 0.03 0.03 0.03 0.03 0.03 0.03 0.02 0.02 0.02 0.02 0.01 0.01 0.01 0.02 0.01 0.01 0.01 0.02 0.03 0.04 0.04 0.05 0.06 0.09 0.18 0.18 0.12 0.09 0.09 0.12 0.14 0.16 0.14 0.11 0.10 0.10
0.03 0.03 0.03 0.02 0.02 0.03 0.03 0.03 0.03 0.03 0.03 0.03 0.03 0.02 0.02 0.03 0.02 0.01 0.01 0.01 0.02 0.02 0.02 0.02 0.02 0.02 0.02 0.03 0.05 0.07 0.08 0.11 0.13 0.11 0.08 0.08 0.12 0.14 0.10 0.10 0.11 0.10 0.10
0.04 0.04 0.04 0.04 0.04 0.04 0.03 0.03 0.03 0.03 0.02 0.02 0.02 0.02 0.03 0.03 0.04 0.02 0.01 0.02 0.01 0.01 0.02 0.02 0.02 0.03 0.02 0.03 0.04 0.06 0.07 0.08 0.08 0.08 0.08 0.09 0.09 0.08 0.08 0.10 0.11 0.11 0.11
0.06 0.06 0.05 0.06 0.05 0.05 0.04 0.04 0.03 0.02 0.02 0.02 0.02 0.02 0.02 0.03 0.03 0.03 0.02 0.02 0.01 0.01 0.01 0.02 0.02 0.03 0.03 0.03 0.05 0.05 0.05 0.06 0.05 0.06 0.09 0.07 0.05 0.05 0.06 0.06 0.08 0.09 0.08
0.08 0.09 0.08 0.07 0.06 0.06 0.05 0.04 0.03 0.03 0.02 0.02 0.03 0.03 0.03 0.02 0.02 0.02 0.02 0.02 0.02 0.02 0.01 0.02 0.02 0.03 0.03 0.03 0.04 0.04 0.04 0.04 0.05 0.06 0.05 0.03 0.03 0.03 0.03 0.04 0.05 0.05 0.05
0.08 0.07 0.06 0.07 0.06 0.06 0.05 0.04 0.04 0.04 0.04 0.03 0.03 0.04 0.04 0.03 0.02 0.02 0.02 0.02 0.02 0.02 0.01 0.01 0.02 0.02 0.02 0.02 0.03 0.03 0.03 0.03 0.03 0.04 0.03 0.03 0.02 0.02 0.02 0.02 0.02 0.03 0.04
0.08 0.06 0.06 0.07 0.07 0.06 0.07 0.07 0.06 0.05 0.04 0.03 0.03 0.03 0.03 0.03 0.02 0.02 0.01 0.01 0.02 0.02 0.02 0.02 0.02 0.02 0.02 0.02 0.03 0.03 0.03 0.02 0.02 0.02 0.02 0.02 0.02 0.01 0.01 0.02 0.02 0.02 0.03
0.08 0.07 0.07 0.07 0.05 0.05 0.06 0.05 0.04 0.05 0.04 0.02 0.02 0.03 0.02 0.01 0.01 0.02 0.01 0.01 0.02 0.02 0.02 0.02 0.02 0.02 0.02 0.02 0.03 0.03 0.03 0.02 0.01 0.01 0.01 0.01 0.01 0.01 0.01 0.01 0.02 0.03 0.04
0.06 0.07 0.08 0.08 0.08 0.07 0.08 0.06 0.04 0.04 0.03 0.03 0.03 0.02 0.02 0.01 0.01 0.01 0.01 0.01 0.01 0.02 0.03 0.03 0.02 0.02 0.03 0.03 0.02 0.03 0.04 0.02 0.01 0.01 0.01 0.01 0.01 0.01 0.01 0.01 0.02 0.02 0.03
0.05 0.06 0.07 0.07 0.07 0.07 0.07 0.07 0.06 0.05 0.04 0.03 0.03 0.02 0.01 0.01 0.01 0.01 0.01 0.00 0.01 0.01 0.02 0.03 0.03 0.02 0.02 0.02 0.02 0.03 0.05 0.03 0.01 0.01 0.01 0.01 0.01 0.01 0.01 0.01 0.01 0.01 0.02
0.06 0.06 0.05 0.05 0.06 0.06 0.06 0.06 0.06 0.06 0.05 0.04 0.03 0.02 0.02 0.01 0.01 0.01 0.01 0.01 0.01 0.02 0.02 0.02 0.02 0.02 0.02 0.02 0.02 0.03 0.04 0.03 0.01 0.01 0.01 0.01 0.01 0.01 0.01 0.01 0.01 0.00 0.01
0.06 0.06 0.05 0.06 0.07 0.10 0.13 0.13 0.11 0.12 0.09 0.06 0.04 0.02 0.02 0.02 0.02 0.02 0.01 0.01 0.02 0.02 0.02 0.02 0.02 0.01 0.01 0.02 0.02 0.03 0.03 0.03 0.02 0.01 0.01 0.01 0.01 0.01 0.01 0.01 0.01 0.01 0.01
0.05 0.05 0.05 0.06 0.09 0.13 0.14 0.13 0.11 0.08 0.06 0.05 0.04 0.03 0.03 0.02 0.02 0.02 0.01 0.02 0.01 0.01 0.01 0.01 0.01 0.01 0.01 0.02 0.02 0.02 0.03 0.03 0.02 0.02 0.01 0.01 0.01 0.01 0.01 0.01 0.01 0.01 0.01
0.03 0.04 0.06 0.06 0.06 0.05 0.04 0.04 0.05 0.06 0.06 0.06 0.06 0.07 0.07 0.05 0.04 0.03 0.03 0.02 0.01 0.01 0.02 0.01 0.01 0.02 0.02 0.02 0.02 0.03 0.03 0.03 0.03 0.03 0.02 0.01 0.00 0.00 0.00 0.00 0.01 0.01 0.01
0.01 0.02 0.02 0.02 0.03 0.02 0.02 0.02 0.03 0.04 0.05 0.06 0.07 0.08 0.08 0.06 0.05 0.05 0.03 0.02 0.02 0.01 0.02 0.03 0.02 0.02 0.02 0.03 0.02 0.02 0.03 0.03 0.03 0.03 0.02 0.01 0.01 0.00 0.00 0.00 0.00 0.00 0.01
0.02 0.02 0.01 0.02 0.02 0.02 0.02 0.02 0.02 0.03 0.05 0.06 0.06 0.07 0.06 0.05 0.04 0.04 0.03 0.02 0.02 0.02 0.03 0.03 0.03 0.02 0.02 0.03 0.04 0.03 0.04 0.04 0.03 0.03 0.02 0.01 0.01 0.01 0.01 0.01 0.00 0.00 0.01
MSLP
1012.97 1013.20 1013.38 1013.52 1013.65 1013.75 1013.86 1013.96 1014.05 1014.11 1014.16 1014.17 1014.15 1014.11 1014.07 1014.04 1014.04 1014.07 1014.14 1014.25 1014.38 1014.55 1014.74 1014.97 1015.23 1015.54 1015.89 1016.28 1016.70 1017.13 1017.56 1017.98 1018.37 1018.73 1019.06 1019.38 1019.69 1019.99 1020.29 1020.57 1020.83 1021.05 1021.22
1012.53 1012.79 1013.03 1013.26 1013.48 1013.68 1013.88 1014.06 1014.21 1014.34 1014.42 1014.46 1014.45 1014.42 1014.37 1014.31 1014.27 1014.24 1014.24 1014.27 1014.33 1014.43 1014.57 1014.76 1014.99 1015.28 1015.62 1016.01 1016.42 1016.86 1017.30 1017.73 1018.14 1018.53 1018.91 1019.26 1019.61 1019.95 1020.27 1020.57 1020.84 1021.05 1021.22
1012.07 1012.35 1012.64 1012.95 1013.26 1013.57 1013.87 1014.14 1014.36 1014.55 1014.67 1014.73 1014.74 1014.71 1014.65 1014.57 1014.49 1014.41 1014.35 1014.31 1014.30 1014.32 1014.39 1014.52 1014.71 1014.96 1015.28 1015.64 1016.05 1016.49 1016.94 1017.39 1017.83 1018.25 1018.67 1019.07 1019.45 1019.82 1020.17 1020.49 1020.76 1020.99 1021.16
1011.67 1011.95 1012.27 1012.64 1013.03 1013.43 1013.81 1014.16 1014.46 1014.69 1014.84 1014.93 1014.95 1014.92 1014.85 1014.75 1014.65 1014.53 1014.42 1014.33 1014.25 1014.21 1014.21 1014.27 1014.40 1014.60 1014.87 1015.21 1015.60 1016.03 1016.49 1016.95 1017.42 1017.88 1018.33 1018.76 1019.18 1019.58 1019.95 1020.29 1020.58 1020.82 1021.02
1011.40 1011.65 1011.97 1012.37 1012.81 1013.27 1013.72 1014.13 1014.47 1014.73 1014.90 1014.99 1015.02 1014.99 1014.92 1014.82 1014.71 1014.59 1014.46 1014.33 1014.21 1014.11 1014.05 1014.04 1014.10 1014.23 1014.45 1014.74 1015.10 1015.51 1015.97 1016.45 1016.94 1017.43 1017.91 1018.37 1018.82 1019.24 1019.63 1019.98 1020.29 1020.55 1020.77
1011.28 1011.47 1011.76 1012.15 1012.61 1013.11 1013.59 1014.03 1014.39 1014.66 1014.83 1014.92 1014.94 1014.92 1014.86 1014.79 1014.70 1014.59 1014.48 1014.34 1014.21 1014.07 1013.96 1013.88 1013.87 1013.93 1014.07 1014.30 1014.62 1015.00 1015.44 1015.92 1016.43 1016.94 1017.44 1017.93 1018.39 1018.83 1019.23 1019.59 1019.91 1020.20 1020.45
1011.28 1011.38 1011.62 1011.98 1012.43 1012.93 1013.42 1013.86 1014.22 1014.49 1014.65 1014.73 1014.76 1014.75 1014.72 1014.68 1014.64 1014.58 1014.50 1014.40 1014.27 1014.12 1013.97 1013.84 1013.75 1013.73 1013.79 1013.95 1014.20 1014.55 1014.96 1015.44 1015.94 1016.46 1016.98 1017.48 1017.95 1018.39 1018.80 1019.17 1019.50 1019.80 1020.07
1011.33 1011.34 1011.51 1011.83 1012.25 1012.73 1013.21 1013.65 1014.00 1014.25 1014.40 1014.48 1014.51 1014.52 1014.53 1014.54 1014.56 1014.57 1014.56 1014.51 1014.40 1014.26 1014.09 1013.91 1013.75 1013.65 1013.63 1013.71 1013.90 1014.19 1014.57 1015.03 1015.53 1016.05 1016.57 1017.07 1017.55 1017.98 1018.38 1018.75 1019.08 1019.39 1019.67
1011.36 1011.28 1011.37 1011.64 1012.03 1012.49 1012.96 1013.39 1013.73 1013.97 1014.12 1014.19 1014.24 1014.28 1014.33 1014.41 1014.50 1014.59 1014.65 1014.66 1014.60 1014.47 1014.28 1014.07 1013.86 1013.69 1013.59 1013.60 1013.72 1013.95 1014.29 1014.72 1015.20 1015.71 1016.23 1016.73 1017.20 1017.63 1018.02 1018.37 1018.69 1018.99 1019.27
1011.28 1011.12 1011.16 1011.38 1011.75 1012.20 1012.67 1013.09 1013.43 1013.67 1013.82 1013.90 1013.97 1014.04 1014.14 1014.28 1014.44 1014.60 1014.73 1014.80 1014.78 1014.68 1014.49 1014.26 1014.00 1013.78 1013.62 1013.56 1013.62 1013.80 1014.10 1014.50 1014.96 1015.46 1015.96 1016.45 1016.91 1017.32 1017.69 1018.02 1018.33 1018.61 1018.87
1011.06 1010.84 1010.84 1011.04 1011.39 1011.84 1012.31 1012.74 1013.09 1013.34 1013.50 1013.61 1013.69 1013.80 1013.94 1014.12 1014.34 1014.56 1014.75 1014.87 1014.90 1014.82 1014.65 1014.40 1014.13 1013.87 1013.67 1013.56 1013.57 1013.71 1013.97 1014.33 1014.77 1015.25 1015.74 1016.21 1016.64 1017.03 1017.38 1017.68 1017.96 1018.21 1018.44
1010.72 1010.46 1010.43 1010.62 1010.97 1011.43 1011.91 1012.35 1012.72 1012.98 1013.16 1013.29 1013.40 1013.53 1013.70 1013.92 1014.17 1014.44 1014.66 1014.82 1014.88 1014.83 1014.68 1014.45 1014.17 1013.90 1013.68 1013.55 1013.53 1013.64 1013.87 1014.20 1014.60 1015.05 1015.51 1015.95 1016.36 1016.72 1017.03 1017.30 1017.54 1017.76 1017.97
1010.30 1010.01 1009.97 1010.16 1010.51 1010.97 1011.46 1011.92 1012.30 1012.59 1012.79 1012.93 1013.07 1013.21 1013.41 1013.65 1013.92 1014.21 1014.46 1014.64 1014.73 1014.71 1014.59 1014.39 1014.14 1013.88 1013.67 1013.53 1013.50 1013.58 1013.77 1014.07 1014.43 1014.83 1015.25 1015.65 1016.01 1016.33 1016.61 1016.85 1017.05 1017.23 1017.41
1009.90 1009.59 1009.54 1009.71 1010.06 1010.51 1011.00 1011.46 1011.85 1012.15 1012.37 1012.54 1012.69 1012.86 1013.06 1013.31 1013.60 1013.89 1014.16 1014.36 1014.48 1014.49 1014.41 1014.25 1014.04 1013.83 1013.64 1013.51 1013.48 1013.54 1013.70 1013.94 1014.25 1014.60 1014.95 1015.28 1015.59 1015.86 1016.09 1016.29 1016.46 1016.61 1016.76
1009.58 1009.26 1009.19 1009.34 1009.66 1010.09 1010.55 1011.00 1011.38 1011.69 1011.92 1012.11 1012.29 1012.48 1012.70 1012.96 1013.25 1013.55 1013.83 1014.05 1014.19 1014.25 1014.22 1014.12 1013.96 1013.80 1013.65 1013.55 1013.51 1013.55 1013.67 1013.85 1014.08 1014.34 1014.61 1014.87 1015.10 1015.31 1015.48 1015.64 1015.77 1015.90 1016.03
1009.41 1009.07 1008.98 1009.09 1009.36 1009.73 1010.15 1010.56 1010.93 1011.23 1011.48 1011.69 1011.89 1012.11 1012.35 1012.63 1012.94 1013.25 1013.54 1013.79 1013.97 1014.07 1014.09 1014.05 1013.96 1013.85 1013.75 1013.67 1013.63 1013.64 1013.70 1013.81 1013.95 1014.10 1014.26 1014.42 1014.56 1014.69 1014.81 1014.92 1015.03 1015.14 1015.26
1009.41 1009.06 1008.92 1008.97 1009.17 1009.47 1009.82 1010.18 1010.51 1010.80 1011.06 1011.30 1011.54 1011.79 1012.07 1012.38 1012.71 1013.05 1013.36 1013.64 1013.86 1014.01 1014.09 1014.11 1014.09 1014.03 1013.97 1013.90 1013.86 1013.83 1013.82 1013.83 1013.86 1013.90 1013.94 1013.98 1014.03 1014.07 1014.12 1014.18 1014.26 1014.36 1014.48
1009.55 1009.18 1009.00 1008.98 1009.10 1009.30 1009.57 1009.85 1010.14 1010.42 1010.68 1010.95 1011.23 1011.53 1011.87 1012.22 1012.59 1012.96 1013.30 1013.61 1013.87 1014.07 1014.21 1014.29 1014.32 1014.31 1014.28 1014.22 1014.16 1014.08 1014.00 1013.92 1013.83 1013.75 1013.66 1013.59 1013.53 1013.49 1013.47 1013.49 1013.53 1013.61 1013.73
1009.78 1009.40 1009.17 1009.08 1009.10 1009.21 1009.39 1009.60 1009.83 1010.09 1010.36 1010.65 1010.97 1011.33 1011.71 1012.12 1012.53 1012.94 1013.32 1013.67 1013.96 1014.20 1014.39 1014.52 1014.60 1014.63 1014.62 1014.56 1014.48 1014.36 1014.20 1014.03 1013.84 1013.64 1013.45 1013.27 1013.11 1012.98 1012.90 1012.87 1012.88 1012.94 1013.04
1010.03 1009.65 1009.38 1009.22 1009.16 1009.17 1009.26 1009.39 1009.57 1009.80 1010.07 1010.38 1010.74 1011.14 1011.57 1012.02 1012.48 1012.92 1013.34 1013.71 1014.04 1014.32 1014.55 1014.72 1014.83 1014.89 1014.90 1014.85 1014.74 1014.59 1014.38 1014.14 1013.87 1013.58 1013.29 1013.02 1012.78 1012.58 1012.44 1012.35 1012.32 1012.36 1012.44
1010.24 1009.86 1009.57 1009.36 1009.22 1009.16 1009.16 1009.22 1009.35 1009.54 1009.80 1010.12 1010.49 1010.92 1011.39 1011.87 1012.35 1012.83 1013.27 1013.67 1014.02 1014.33 1014.58 1014.78 1014.93 1015.01 1015.04 1015.00 1014.89 1014.72 1014.49 1014.20 1013.88 1013.53 1013.19 1012.85 1012.55 1012.30 1012.09 1011.96 1011.88 1011.87 1011.91
1010.35 1010.00 1009.71 1009.47 1009.28 1009.15 1009.09 1009.09 1009.16 1009.30 1009.53 1009.84 1010.22 1010.65 1011.13 1011.62 1012.12 1012.60 1013.06 1013.47 1013.84 1014.17 1014.44 1014.67 1014.84 1014.95 1015.00 1014.98 1014.88 1014.72 1014.49 1014.20 1013.87 1013.50 1013.13 1012.76 1012.42 1012.12 1011.87 1011.68 1011.55 1011.48 1011.46
1010.35 1010.04 1009.77 1009.52 1009.31 1009.14 1009.03 1008.97 1008.99 1009.09 1009.29 1009.56 1009.91 1010.33 1010.79 1011.28 1011.77 1012.25 1012.70 1013.11 1013.49 1013.83 1014.12 1014.36 1014.56 1014.69 1014.77 1014.78 1014.72 1014.59 1014.39 1014.13 1013.82 1013.47 1013.10 1012.74 1012.38 1012.05 1011.75 1011.51 1011.31 1011.17 1011.08
1010.24 1009.99 1009.75 1009.52 1009.31 1009.13 1008.98 1008.89 1008.86 1008.92 1009.06 1009.30 1009.61 1009.99 1010.42 1010.88 1011.34 1011.80 1012.24 1012.65 1013.02 1013.36 1013.66 1013.92 1014.13 1014.29 1014.40 1014.45 1014.44 1014.35 1014.21 1014.00 1013.74 1013.44 1013.10 1012.76 1012.40 1012.05 1011.73 1011.42 1011.16 1010.93 1010.75
1010.02 1009.83 1009.64 1009.45 1009.27 1009.09 1008.94 1008.83 1008.77 1008.79 1008.90 1009.08 1009.35 1009.68 1010.07 1010.49 1010.92 1011.35 1011.77 1012.16 1012.52 1012.85 1013.15 1013.42 1013.64 1013.82 1013.96 1014.04 1014.07 1014.05 1013.96 1013.82 1013.63 1013.39 1013.11 1012.79 1012.46 1012.10 1011.75 1011.39 1011.06 1010.75 1010.47
1009.71 1009.59 1009.46 1009.32 1009.17 1009.02 1008.89 1008.78 1008.71 1008.71 1008.79 1008.94 1009.16 1009.45 1009.80 1010.17 1010.57 1010.97 1011.36 1011.73 1012.07 1012.39 1012.68 1012.93 1013.16 1013.35 1013.50 1013.61 1013.68 1013.70 1013.67 1013.60 1013.47 1013.30 1013.07 1012.80 1012.49 1012.14 1011.77 1011.37 1010.97 1010.58 1010.22
Thickness
5752 5752 5751 5749 5748 5747 5746 5745 5744 5743 5743 5742 5741 5741 5740 5740 5739 5738 5738 5738 5737 5737 5737 5737 5736 5735 5734 5733 5732 5731 5730 5729 5728 5728 5727 5726 5725 5724 5723 5722 5720 5719 5718
5752 5751 5749 5748 5747 5745 5744 5742 5742 5741 5740 5739 5739 5739 5738 5738 5737 5737 5736 5735 5735 5735 5735 5735 5735 5734 5733 5732 5731 5730 5729 5728 5728 5727 5726 5725 5724 5723 5722 5721 5719 5718 5717
5751 5750 5748 5746 5745 5743 5742 5741 5739 5739 5738 5737 5737 5737 5736 5735 5735 5735 5734 5733 5733 5733 5734 5734 5733 5733 5732 5731 5730 5729 5728 5727 5727 5726 5726 5725 5724 5723 5722 5720 5718 5717 5715
5751 5749 5747 5745 5744 5742 5740 5739 5737 5736 5735 5734 5734 5733 5733 5733 5732 5732 5731 5731 5731 5731 5731 5731 5731 5731 5730 5730 5729 5728 5728 5727 5726 5725 5725 5724 5723 5722 5721 5719 5718 5716 5714
5750 5748 5746 5744 5742 5741 5739 5738 5736 5734 5732 5731 5731 5731 5730 5730 5729 5730 5729 5729 5729 5729 5729 5729 5729 5729 5728 5728 5728 5727 5727 5726 5725 5725 5724 5723 5722 5720 5719 5718 5717 5715 5713
5748 5746 5744 5743 5741 5739 5737 5735 5733 5732 5731 5730 5729 5728 5728 5728 5727 5727 5727 5727 5726 5726 5726 5726 5726 5726 5726 5726 5726 5726 5726 5725 5725 5724 5723 5722 5721 5720 5718 5717 5715 5713 5711
5746 5744 5743 5741 5739 5737 5735 5734 5732 5729 5728 5727 5725 5723 5724 5725 5725 5724 5724 5724 5724 5724 5724 5724 5724 5724 5724 5724 5724 5724 5724 5724 5723 5723 5722 5721 5720 5719 5718 5716 5714 5712 5710
5744 5742 5740 5739 5737 5735 5732 5731 5730 5727 5725 5725 5721 5718 5716 5717 5720 5722 5722 5722 5722 5721 5721 5721 5721 5721 5721 5721 5722 5722 5722 5722 5721 5721 5721 5720 5720 5719 5717 5715 5713 5711 5708
5742 5740 5739 5737 5735 5734 5731 5730 5728 5725 5722 5721 5721 5717 5712 5709 5713 5717 5718 5718 5718 5718 5718 5719 5719 5719 5719 5719 5719 5720 5720 5720 5721 5721 5720 5719 5719 5718 5716 5714 5712 5709 5706
5740 5739 5737 5735 5734 5731 5729 5728 5726 5724 5721 5718 5717 5716 5714 5712 5709 5709 5712 5714 5715 5715 5716 5716 5717 5717 5717 5717 5717 5718 5718 5718 5720 5719 5718 5716 5716 5715 5714 5712 5709 5707 5705
5737 5736 5735 5733 5731 5729 5727 5725 5724 5722 5720 5717 5715 5713 5711 5710 5709 5706 5705 5707 5710 5712 5713 5713 5714 5715 5715 5715 5715 5715 5716 5715 5716 5715 5714 5713 5712 5711 5710 5709 5707 5706 5704
5732 5732 5732 5730 5728 5726 5724 5723 5721 5720 5718 5716 5715 5713 5710 5708 5706 5704 5702 5702 5703 5706 5709 5710 5711 5712 5712 5712 5712 5712 5713 5712 5711 5711 5710 5709 5708 5707 5706 5705 5704 5703 5701
5728 5728 5728 5726 5725 5724 5722 5721 5719 5717 5716 5715 5713 5712 5710 5709 5707 5705 5702 5700 5699 5702 5704 5706 5707 5708 5708 5708 5708 5708 5708 5708 5707 5707 5706 5705 5704 5703 5702 5702 5701 5700 5699
5725 5725 5724 5723 5722 5721 5720 5718 5716 5715 5714 5712 5712 5710 5709 5708 5706 5704 5702 5699 5696 5696 5698 5700 5703 5704 5704 5704 5703 5704 5704 5704 5703 5702 5702 5700 5700 5699 5699 5698 5697 5696 5696
5724 5722 5721 5719 5718 5717 5716 5715 5713 5712 5711 5709 5708 5708 5706 5705 5703 5702 5701 5699 5695 5691 5692 5695 5697 5699 5699 5699 5699 5699 5699 5699 5698 5697 5696 5695 5694 5694 5694 5693 5693 5693 5692
5720 5718 5716 5715 5714 5712 5712 5711 5709 5708 5707 5705 5704 5703 5702 5701 5700 5698 5697 5696 5694 5691 5688 5690 5691 5693 5694 5695 5694 5693 5693 5693 5692 5691 5690 5689 5689 5689 5688 5688 5688 5688 5687
5716 5714 5713 5710 5709 5707 5707 5706 5705 5704 5702 5700 5700 5699 5697 5696 5695 5694 5693 5691 5690 5689 5686 5686 5686 5688 5688 5688 5688 5688 5688 5686 5686 5685 5684 5683 5683 5683 5682 5682 5682 5682 5682
5711 5710 5708 5706 5704 5703 5702 5701 5699 5698 5697 5696 5695 5694 5692 5691 5689 5688 5688 5687 5686 5685 5683 5681 5681 5682 5682 5682 5682 5682 5682 5681 5680 5679 5679 5678 5677 5676 5676 5676 5676 5676 5676
5704 5703 5702 5701 5699 5698 5696 5696 5694 5693 5692 5691 5690 5688 5686 5685 5684 5683 5682 5681 5680 5680 5678 5677 5676 5676 5676 5676 5675 5675 5675 5674 5674 5673 5672 5672 5671 5671 5670 5671 5671 5671 5670
5698 5697 5696 5695 5693 5692 5691 5690 5689 5688 5687 5686 5685 5683 5682 5681 5679 5678 5677 5676 5675 5674 5672 5671 5670 5669 5668 5668 5668 5668 5667 5667 5666 5666 5665 5665 5664 5664 5664 5665 5665 5665 5664
5691 5690 5689 5689 5687 5686 5685 5684 5682 5682 5681 5680 5679 5678 5677 5676 5675 5673 5672 5670 5669 5668 5666 5665 5663 5663 5662 5661 5661 5661 5659 5659 5658 5658 5658 5658 5657 5657 5657 5657 5657 5657 5657
5682 5682 5681 5681 5680 5680 5679 5678 5676 5675 5675 5674 5673 5671 5671 5670 5669 5667 5666 5665 5664 5663 5661 5659 5658 5657 5657 5657 5655 5654 5652 5651 5650 5650 5650 5650 5650 5650 5650 5650 5651 5650 5649
5674 5674 5674 5674 5674 5673 5673 5671 5670 5668 5668 5667 5667 5666 5666 5666 5664 5662 5660 5659 5658 5657 5656 5655 5653 5653 5653 5653 5650 5648 5646 5646 5645 5644 5643 5643 5643 5643 5643 5643 5643 5643 5642
5666 5666 5667 5667 5666 5666 5665 5664 5663 5662 5662 5661 5661 5661 5659 5659 5658 5656 5654 5652 5651 5651 5651 5650 5650 5649 5649 5648 5645 5644 5641 5639 5638 5637 5636 5635 5635 5635 5636 5635 5635 5635 5635
5658 5659 5659 5660 5660 5660 5659 5658 5656 5656 5655 5654 5655 5654 5653 5652 5651 5649 5648 5646 5645 5645 5645 5645 5644 5644 5643 5642 5640 5637 5634 5633 5632 5631 5629 5628 5628 5627 5628 5628 5627 5627 5626
5652 5652 5651 5652 5652 5652 5652 5651 5650 5649 5648 5648 5647 5647 5646 5645 5644 5642 5641 5640 5639 5639 5639 5638 5638 5637 5637 5636 5634 5633 5630 5627 5626 5624 5624 5621 5621 5620 5621 5621 5619 5618 5618